Home > Weather > San Diego > Past weeks

Flag for USA Past Weather in San Diego, California, USA — Yesterday and Last 2 Weeks

Now
69 °F

Passing clouds.


Feels Like: 69 °F
Forecast: 72 / 80 °F
Wind: No wind

Location: San Diego - North Island

Current Time: Jul 28, 2016 at 5:29:39 AM

Latest Report: Jul 28, 2016 at 4:52 AM


Visibility: 10 mi

Pressure: 29.89 "Hg

Humidity: 90%

Dew Point: 66 °F

Location of San DiegoLocation

Past Weather in San Diego — Graph

°F

San Diego Temperature Yesterday

Maximum temperature yesterday: 77 °F (at 11:52 AM)
Minimum temperature yesterday: 69 °F (at 12:52 AM)
Average temperature yesterday: 72 °F

High & Low Weather Summary for the Past Weeks

 TemperatureHumidityPressure
High83 °F (Jul 22, 12:52 PM)100% (Jul 21, 5:52 AM)30.03 "Hg (Jul 21, 5:52 AM)
Low63 °F (Jul 24, 7:02 AM)48% (Jul 22, 12:52 PM)29.79 "Hg (Jul 23, 5:52 AM)
Average69 °F83%29.92 "Hg
* Reported Jul 13 3:52 AM — Jul 28 3:52 AM, San Diego, Weather by CustomWeather, © 2016

Note: Actual official high and low records may vary slightly from our data, if they occured in-between our weather recording intervals... More about our weather records

Advertising

San Diego Weather History for the Previous 24 Hours

Scroll right to see more
 ConditionsComfort  
Time TempWeatherWind HumidityBarometerVisibility
3:52 AM
Thu, Jul 28
69 °FPassing clouds.3 mph90%29.88 "Hg10 mi
2:52 AM69 °FPassing clouds.3 mph90%29.88 "Hg10 mi
1:52 AM70 °FPassing clouds.5 mph90%29.88 "Hg10 mi
12:52 AM70 °FPassing clouds.6 mph87%29.88 "Hg10 mi
11:52 PM
Wed, Jul 27
70 °FPassing clouds.3 mph84%29.89 "Hg10 mi
10:52 PM71 °FPassing clouds.3 mph87%29.89 "Hg10 mi
9:52 PM71 °FPassing clouds.No wind84%29.90 "Hg10 mi
8:52 PM72 °FPassing clouds.3 mph81%29.88 "Hg10 mi
7:52 PM71 °FBroken clouds.5 mph84%29.88 "Hg10 mi
6:52 PM74 °FBroken clouds.7 mph76%29.87 "Hg10 mi
5:52 PM74 °FBroken clouds.7 mph76%29.88 "Hg10 mi
4:52 PM75 °FBroken clouds.9 mph76%29.88 "Hg10 mi
3:52 PM76 °FScattered clouds.8 mph74%29.89 "Hg10 mi
2:52 PM76 °FScattered clouds.7 mph74%29.90 "Hg10 mi
1:52 PM75 °FScattered clouds.8 mph79%29.91 "Hg10 mi
12:52 PM77 °FScattered clouds.10 mph74%29.92 "Hg10 mi
11:52 AM77 °FScattered clouds.9 mph74%29.92 "Hg10 mi
10:52 AM76 °FPartly sunny.9 mph77%29.92 "Hg10 mi
9:52 AM75 °FPartly sunny.7 mph79%29.91 "Hg10 mi
8:52 AM73 °FBroken clouds.3 mph81%29.90 "Hg10 mi
7:52 AM71 °FBroken clouds.6 mph90%29.90 "Hg10 mi
6:52 AM70 °FPassing clouds.6 mph93%29.89 "Hg10 mi
5:52 AM69 °FPassing clouds.3 mph93%29.88 "Hg10 mi
Weather by CustomWeather, © 2016

See weather overviewHow to use our weather pages